Regional Weather Roundup
Issued by NWS

Home | Current Version | Previous Version | Graphics & Text | Print | Product List | Glossary On
Versions: 1 2 3 4 5 6 7 8 9 10 11 12 13 14 15 16 17 18 19 20 21 22 23 24 25 26 27 28 29 30 31 32 33 34 35 36 37 38 39 40 41 42 43 44 45 46 47 48 49 50
000
ASUS43 KIND 222309
RWRIN

WEATHER ROUNDUP FOR INDIANA
NATIONAL WEATHER SERVICE INDIANAPOLIS IN
700 PM EDT MON SEP 22 2014

NOTE: "FAIR" INDICATES FEW OR NO CLOUDS BELOW 12,000 FEET WITH NO
SIGNIFICANT WEATHER AND/OR OBSTRUCTIONS TO VISIBILITY.

* - STATION DOES NOT REPORT WEATHER SUCH AS PRECIPITATION OR FOG.

+ - STATION NOT QUALITY CONTROLLED BY THE NATIONAL WEATHER SERVICE.
    USE DATA WITH CAUTION...ESPECIALLY DEWPOINT AND RELATIVE
    HUMIDITY OBSERVATIONS.

INZ001>003-010>013-019-020-230000-
NORTHWEST INDIANA

CITY           SKY/WX    TMP DP  RH WIND       PRES   REMARKS
GARY /AIRPORT/ CLEAR     63  43  48 NE7       30.24F
KNOX *+        CLEAR     60  44  56 N7        30.24S
LA PORTE +     CLEAR     57  44  60 N6        30.26S
MICHIGAN CITY+ CLEAR     55  43  62 CALM      30.26S
MONTICELLO +   CLEAR     63  47  56 NW6       30.23R
RENSSELAER +   CLEAR     63  43  48 N5        30.25R
VALPARAISO     CLEAR     59  45  59 NE3       30.25S

$$

LMZ046-743>745-230000-
SOUTHERN LAKE MICHIGAN

STATION/POSITION TIME  TEMP WIND        PRES
                       AIR  DIR/SP/G
                 (UTC) (F)  (DEG/KT/KT) (MB)

$$

INZ004-005-014>016-021>024-230000-
NORTH CENTRAL INDIANA

CITY           SKY/WX    TMP DP  RH WIND       PRES   REMARKS
ELKHART        CLEAR     59  43  55 NW6       30.25R
GOSHEN         CLEAR    N/A N/A N/A N12       30.23R
LOGANSPORT +   CLEAR     61  45  55 CALM      30.24S
PERU/GRISSOM   CLEAR     63  47  54 NW6       30.23S
ROCHESTER +    CLEAR     63  45  51 NW8       30.24R
SOUTH BEND     CLEAR     59  45  59 NW9       30.25R
WARSAW +       CLEAR     61  45  55 N5        30.23R

$$

INZ006>009-017-018-025>027-230000-
NORTHEAST INDIANA

CITY           SKY/WX    TMP DP  RH WIND       PRES   REMARKS
ANGOLA *+      CLEAR     61  45  55 NW6       30.22R
AUBURN +       CLEAR     61  41  48 W6        30.23R
FORT WAYNE     CLEAR     62  45  53 W5        30.23R
HUNTINGTON +   CLEAR     61  44  54 CALM      30.22S

$$

INZ028-029-035-036-043>045-051>053-230000-
WEST CENTRAL INDIANA

CITY           SKY/WX    TMP DP  RH WIND       PRES   REMARKS
GREENCASTLE +  CLEAR     64  43  45 CALM      30.24S
LAFAYETTE      CLEAR     65  47  52 CALM      30.23S
TERRE HAUTE    CLEAR     66  45  46 NE5       30.23S

$$

INZ030>032-037>040-046>048-054>057-064-065-230000-
CENTRAL INDIANA

CITY           SKY/WX    TMP DP  RH WIND       PRES   REMARKS
CP ATTERBURY + CLEAR     63  43  48 N5        30.24R
COLUMBUS       CLEAR     64  43  45 CALM      30.24R
FRANKFORT +    CLEAR     63  45  51 NW3       30.25S
INDIANAPOLIS   CLEAR     64  42  44 N8        30.23R
-EAGLE CREEK   CLEAR     65  41  41 N6        30.23R
KOKOMO *+      CLEAR     64  43  45 N6        30.23S
MARION +       CLEAR     63  39  42 CALM      30.24R
MT COMFORT *+  CLEAR     63  36  36 N5        30.24S
SHELBYVILLE    CLEAR     65  43  44 N7        30.23S
ZIONSVILLE +   CLEAR     63  45  52 N3        30.25R

$$

INZ033-034-041-042-049-050-058-059-230000-
EAST CENTRAL INDIANA

CITY           SKY/WX    TMP DP  RH WIND       PRES   REMARKS
MUNCIE         CLEAR     62  44  51 NW3       30.23R

$$

INZ060-061-067>069-081>083-085>088-230000-
SOUTHWEST INDIANA

CITY           SKY/WX    TMP DP  RH WIND       PRES   REMARKS
EVANSVILLE     CLEAR     70  44  39 NE9       30.22S
WASHINGTON +   CLEAR     66  48  50 N5        30.22R

$$

INZ062-063-066-070>080-084-089>092-230000-
SOUTH CENTRAL AND SOUTHEAST INDIANA

CITY           SKY/WX    TMP DP  RH WIND       PRES   REMARKS
BLOOMINGTON    CLEAR     65  43  44 CALM      30.23S

$$



USA.gov is the U.S. government's official web portal to all federal, state and local government web resources and services.